Powrót do katalogu

SKYMED 2

AktywnyNaukaSSO
NORAD 32376·PAYLOAD·🇮🇹 Italy

Wystrzelony Dec 9, 2007 z Vandenberg Space Force Base

Loading…

Następne Przeloty (najbliższe 24 godziny)

TLE

ŚwieżeSource: Space-Track

Epoka: Sep 14, 2026, 14:42 UTC

1 32376U 07059A   26257.61253469  .00000269  00000-0  40306-4 0  9994
2 32376  97.8916  79.9360 0001333  90.0462 270.0904 14.82149394 15258

Śledź SKYMED 2 w czasie rzeczywistym z AllMySat

Download on the App Store